Weather History for Grand Junction, CO

Change the Weather History Date:

Thursday, March 24, 2011

  Actual Average Record
Temperature  
Mean Temperature 45 °F 46 °F  
Max Temperature 55 °F 59 °F 77 °F (1998)
Min Temperature 34 °F 33 °F 14 °F (2013)
Degree Days  
Heating Degree Days 20 19  
Month to date heating degree days 460 525  
Since 1 July heating degree days 4660 4904  
Cooling Degree Days 0 0  
Month to date cooling degree days 0 0  
Year to date cooling degree days 0 0  
Moisture  
Dew Point 19 °F    
Average Humidity 37    
Maximum Humidity 56    
Minimum Humidity 18    
Precipitation  
Precipitation T in 0.03 in 0.51 in (1965)
Month to date precipitation 0.47 0.68  
Year to date precipitation 0.91 1.80  
Snow  
Snow T in 0.10 in 2.90 in (1965)
Month to date snowfall 0.1 2.0  
Since 1 July snowfall 12.9 17.5  
Snow Depth 0.00 in    
Sea Level Pressure  
Sea Level Pressure 29.73 in    
Wind  
Wind Speed 12 mph (SSE)    
Max Wind Speed 39 mph    
Max Gust Speed 49 mph    
Visibility 10 miles    
Events Rain    
T = Trace of Precipitation, MM = Missing Value Source: NWS Daily Summary

Daily Weather History Graph

Daily Weather History Graph

Search for Another Location

Airport:

Trip Planner

Search our weather history database for the weather conditions in past years. The results will help you decide how hot, cold, wet, or windy it might be!

Date:

Astronomy

Mar. 24, 2011 Rise Set
Actual Time 7:11 AM MDT 7:29 PM MDT
Civil Twilight 6:44 AM MDT 7:56 PM MDT
Nautical Twilight 6:13 AM MDT 8:28 PM MDT
Astronomical Twilight 5:41 AM MDT 9:00 PM MDT
Moon 12:44 AM MDT (3/24) 10:20 AM MDT (3/24)
Length of Visible Light 13h 11m
Length of Day
12h 18m
Waning Gibbous, 68% of the Moon is Illuminated
Mar 24
Waning Gibbous
Mar 26
Last Quarter
Apr 3
New
Apr 11
First Quarter
Apr 17
Full

Hourly Weather History & Observations

Time (MDT) Temp. Windchill Dew Point Humidity Pressure Visibility Wind Dir Wind Speed Gust Speed Precip Events Conditions
12:53 AM 36.0 °F 29.0 °F 21.9 °F 57% 29.75 in 10.0 mi East 9.2 mph - N/A   Clear
1:53 AM 41.0 °F 34.7 °F 18.0 °F 40% 29.71 in 10.0 mi East 10.4 mph - N/A   Clear
2:53 AM 35.1 °F 27.4 °F 21.0 °F 57% 29.69 in 10.0 mi ENE 10.4 mph - N/A   Clear
3:53 AM 37.0 °F 33.3 °F 19.9 °F 50% 29.67 in 10.0 mi East 4.6 mph - N/A   Clear
4:53 AM 36.0 °F 29.0 °F 21.0 °F 55% 29.65 in 10.0 mi SSE 9.2 mph - N/A   Clear
5:53 AM 36.0 °F 27.1 °F 21.9 °F 57% 29.64 in 10.0 mi ESE 13.8 mph - N/A   Mostly Cloudy
6:53 AM 37.9 °F 29.2 °F 19.0 °F 47% 29.64 in 10.0 mi East 15.0 mph - N/A   Scattered Clouds
7:53 AM 39.9 °F 32.9 °F 19.0 °F 43% 29.65 in 10.0 mi SE 11.5 mph - N/A   Scattered Clouds
8:53 AM 50.0 °F - 18.0 °F 28% 29.64 in 10.0 mi SSW 20.7 mph 26.5 mph N/A   Clear
9:53 AM 50.0 °F - 19.0 °F 29% 29.65 in 10.0 mi South 25.3 mph 33.4 mph N/A   Mostly Cloudy
10:53 AM 53.1 °F - 19.9 °F 27% 29.65 in 10.0 mi SSW 20.7 mph 32.2 mph N/A   Mostly Cloudy
11:53 AM 45.0 °F 37.9 °F 28.0 °F 52% 29.73 in 10.0 mi West 16.1 mph 26.5 mph N/A   Mostly Cloudy
12:09 PM 39.2 °F 30.2 °F 28.4 °F 65% 29.77 in 7.0 mi WSW 17.3 mph 49.5 mph 0.00 in Rain Light Rain
12:40 PM 42.8 °F 38.6 °F 23.0 °F 46% 29.76 in 10.0 mi South 6.9 mph - 0.00 in   Mostly Cloudy
12:53 PM 44.1 °F - 21.0 °F 40% 29.74 in 10.0 mi Calm Calm - 0.00 in   Mostly Cloudy
1:53 PM 46.0 °F 40.2 °F 28.9 °F 51% 29.73 in 10.0 mi East 12.7 mph - N/A   Mostly Cloudy
2:53 PM 53.1 °F - 12.9 °F 20% 29.74 in 10.0 mi WSW 13.8 mph 24.2 mph N/A   Partly Cloudy
3:53 PM 54.0 °F - 10.9 °F 18% 29.75 in 10.0 mi West 24.2 mph 33.4 mph N/A   Scattered Clouds
4:53 PM 53.1 °F - 10.9 °F 19% 29.77 in 10.0 mi WSW 12.7 mph 20.7 mph N/A   Mostly Cloudy
5:53 PM 53.1 °F - 12.0 °F 20% 29.77 in 10.0 mi West 12.7 mph - N/A   Mostly Cloudy
6:53 PM 50.0 °F - 14.0 °F 24% 29.78 in 10.0 mi WSW 11.5 mph - N/A   Scattered Clouds
7:53 PM 48.0 °F - 14.0 °F 26% 29.79 in 10.0 mi SW 4.6 mph - N/A   Partly Cloudy
8:53 PM 39.0 °F - 15.1 °F 38% 29.80 in 10.0 mi Calm Calm - N/A   Clear
9:53 PM 37.9 °F 34.4 °F 16.0 °F 41% 29.81 in 10.0 mi East 4.6 mph - N/A   Clear
10:53 PM 37.9 °F 32.1 °F 17.1 °F 43% 29.79 in 10.0 mi ESE 8.1 mph - N/A   Clear
11:53 PM 39.0 °F 32.8 °F 15.1 °F 38% 29.81 in 10.0 mi East 9.2 mph - N/A   Clear